This demonstration page uses our WeatherBlox Daily Observations layout. Learn more.

Hourly Observations for February 6, 2017

Temp ( °F °C ) Dew Point ( °F °C ) Humidity (%) Winds ( mph kmh ) Pressure ( in mb ) Visibility ( mi km ) Precip ( " mm )
12:15 am 00:15 Clear 34 0.9 26 -3.6 72 72 SSW 10 17 29.94 1014 10 16.0934 0 0
12:35 am 00:35 Clear 34 1 26 -3.4 73 73 SSW 9 15 29.94 1014 10 16.0934 0 0
12:55 am 00:55 Clear 35 1.4 26 -3.3 71 71 SSW 12 19 29.91 1013 10 16.0934 0 0
1:15 am 01:15 Clear 35 1.6 26 -3.2 71 71 SSW 12 19 29.88 1012 10 16.0934 0 0
1:35 am 01:35 Clear 35 1.5 26 -3.1 72 72 SSW 10 17 29.88 1012 10 16.0934 0 0
1:55 am 01:55 Clear 34 1.1 27 -3 74 74 SSW 7 11 29.88 1012 10 16.0934 0 0
2:15 am 02:15 Clear 34 1.1 27 -3 74 74 SSW 8 13 29.85 1011 10 16.0934 0 0
2:35 am 02:35 Clear 33 0.6 27 -3 77 77 SW 7 11 29.88 1012 10 16.0934 0 0
2:55 am 02:55 Clear 32 0 26 -3.2 79 79 SW 7 11 29.88 1012 10 16.0934 0 0
3:15 am 03:15 Clear 31 -0.3 26 -3.3 80 80 SW 8 13 29.88 1012 10 16.0934 0 0
3:35 am 03:35 Clear 31 -0.4 26 -3.4 80 80 SW 6 9 29.88 1012 10 16.0934 0 0
3:55 am 03:55 Clear 32 -0.1 26 -3.1 80 80 SW 7 11 29.88 1012 10 16.0934 0 0
4:15 am 04:15 Clear 32 -0.2 26 -3.3 80 80 SW 6 9 29.88 1012 10 16.0934 0 0
4:35 am 04:35 Clear 31 -0.3 26 -3.2 81 81 SW 6 9 29.88 1012 10 16.0934 0 0
4:55 am 04:55 Clear 31 -0.5 26 -3.4 81 81 SW 7 11 29.88 1012 10 16.0934 0 0
5:15 am 05:15 Clear 30 -0.9 26 -3.5 83 83 SSW 5 7 29.88 1012 10 16.0934 0 0
5:35 am 05:35 Clear 29 -1.4 26 -3.6 85 85 S 3 6 29.85 1011 10 16.0934 0 0
5:55 am 05:55 Clear 26 -3.3 23 -5.1 88 88 S 5 7 29.88 1012 10 16.0934 0 0
6:15 am 06:15 Clear 27 -3 24 -4.5 90 90 Calm 29.85 1011 10 16.0934 0 0
6:35 am 06:35 Clear 27 -2.7 25 -3.9 92 92 SSE 3 6 29.83 1010 10 16.0934 0 0
6:55 am 06:55 Clear 28 -2.1 26 -3.6 90 90 Calm 29.83 1010 10 16.0934 0 0
7:15 am 07:15 Clear 28 -2 26 -3.5 90 90 S 3 6 29.83 1010 10 16.0934 0 0
7:35 am 07:35 Clear 30 -1.1 27 -2.7 89 89 S 6 9 29.83 1010 10 16.0934 0 0
7:55 am 07:55 Sunny 31 -0.5 28 -2.3 88 88 SSW 3 6 29.8 1009 10 16.0934 0 0
8:15 am 08:15 Sunny 31 -0.6 28 -2.1 90 90 Calm 29.8 1009 7 11.26538 0 0
8:35 am 08:35 Sunny 31 -0.3 29 -1.8 90 90 SW 3 6 29.8 1009 10 16.0934 0 0
8:55 am 08:55 Sunny 32 0.2 30 -1.3 90 90 SW 3 6 29.77 1008 10 16.0934 0 0
9:15 am 09:15 Sunny 34 1.2 31 -0.6 88 88 Calm 29.77 1008 10 16.0934 0 0
9:35 am 09:35 Sunny 35 1.7 31 -0.5 86 86 SW 6 9 29.77 1008 10 16.0934 0 0
9:55 am 09:55 Sunny 37 2.5 32 -0.1 83 83 SSW 3 6 29.77 1008 10 16.0934 0 0
10:15 am 10:15 Sunny 39 3.9 33 0.4 78 78 SW 5 7 29.74 1007 10 16.0934 0 0
10:35 am 10:35 Sunny 40 4.5 33 0.6 76 76 Calm 29.71 1006 10 16.0934 0 0
10:55 am 10:55 Sunny 42 5.6 35 1.6 76 76 S 6 9 29.71 1006 10 16.0934 0 0
11:15 am 11:15 Sunny 42 5.5 35 1.8 77 77 SSE 8 13 29.71 1006 10 16.0934 0 0
11:35 am 11:35 Sunny 40 4.7 34 1.1 78 78 SSE 8 13 29.68 1005 10 16.0934 0 0
11:55 am 11:55 Sunny 40 4.5 33 0.8 77 77 SSE 6 9 29.65 1004 10 16.0934 0 0
12:15 pm 12:15 Sunny 41 5.1 34 1 75 75 SSE 8 13 29.65 1004 10 16.0934 0 0
12:35 pm 12:35 Sunny 42 5.8 34 1.1 72 72 S 6 9 29.62 1003 10 16.0934 0 0
12:55 pm 12:55 Sunny 43 6.2 35 1.5 72 72 S 9 15 29.62 1003 10 16.0934 0 0
1:15 pm 13:15 Sunny 42 5.7 35 1.5 75 75 S 9 15 29.59 1002 10 16.0934 0 0
1:35 pm 13:35 Sunny 42 5.7 35 1.5 75 75 S 8 13 29.59 1002 10 16.0934 0 0
1:55 pm 13:55 Sunny 42 5.8 35 1.5 74 74 S 12 19 29.56 1001 10 16.0934 0 0
2:15 pm 14:15 Sunny 43 6.1 35 1.7 74 74 S 10 17 29.56 1001 10 16.0934 0 0
2:35 pm 14:35 Sunny 43 5.9 35 1.6 74 74 S 12 19 29.56 1001 10 16.0934 0 0
2:55 pm 14:55 Sunny 41 5.1 35 1.6 78 78 S 10 17 29.56 1001 10 16.0934 0 0
3:15 pm 15:15 Sunny 41 5 35 1.8 80 80 S 7 11 29.56 1001 10 16.0934 0 0
3:35 pm 15:35 Sunny 42 5.6 36 2 78 78 S 9 15 29.56 1001 10 16.0934 0 0
3:55 pm 15:55 Sunny 42 5.5 36 2.3 80 80 SSE 12 19 29.53 1000 10 16.0934 0 0
4:15 pm 16:15 Sunny 42 5.8 37 2.5 80 80 SSE 8 13 29.53 1000 10 16.0934 0 0
4:35 pm 16:35 Sunny 43 5.9 37 2.6 80 80 S 9 15 29.53 1000 10 16.0934 0 0
4:55 pm 16:55 Sunny 42 5.7 37 2.8 82 82 S 7 11 29.53 1000 10 16.0934 0 0
5:15 pm 17:15 Sunny 42 5.5 37 2.7 82 82 W 6 9 29.56 1001 10 16.0934 0 0
5:35 pm 17:35 Sunny 41 5 37 2.5 84 84 Calm 29.56 1001 10 16.0934 0 0
5:55 pm 17:55 Sunny 40 4.3 35 1.8 84 84 Calm 29.56 1001 10 16.0934 0 0
6:15 pm 18:15 Clear 37 3 35 1.5 90 90 Calm 29.56 1001 10 16.0934 0 0
6:35 pm 18:35 Clear 36 2.2 34 1.2 93 93 S 3 6 29.59 1002 7 11.26538 0 0
6:55 pm 18:55 Clear 35 1.7 33 0.8 94 94 SSW 6 9 29.59 1002 7 11.26538 0 0
7:15 pm 19:15 Clear with Mist and Fog 34 1.3 33 0.5 94 94 S 6 9 29.62 1003 5 8.0467 0 0
7:35 pm 19:35 Mostly Cloudy with Mist and Fog 36 2 34 1.3 95 95 SW 5 7 29.59 1002 2 3.21868 0 0
7:55 pm 19:55 Cloudy with Mist and Fog 35 1.6 34 0.9 95 95 Calm 29.59 1002 0.75 1.207005 0 0
8:15 pm 20:15 Mostly Cloudy with Mist and Fog 37 2.8 36 2.2 96 96 WSW 5 7 29.59 1002 3 4.82802 0 0
8:35 pm 20:35 Cloudy with Mist and Fog 38 3.6 37 3 96 96 SW 5 7 29.62 1003 2 3.21868 0 0
8:55 pm 20:55 Cloudy with Fog 39 3.9 38 3.3 96 96 W 6 9 29.62 1003 0.25 0.402335 0 0
9:15 pm 21:15 Mostly Cloudy with Mist and Fog 38 3.4 37 2.9 97 97 W 7 11 29.62 1003 3 4.82802 0 0
9:35 pm 21:35 Clear with Mist and Fog 37 2.8 36 2.3 97 97 SW 6 9 29.59 1002 2.5 4.02335 0 0
9:55 pm 21:55 Mostly Cloudy with Mist and Fog 36 2 35 1.5 97 97 WSW 6 9 29.59 1002 1.75 2.816345 0 0
10:15 pm 22:15 Mostly Cloudy with Fog 36 2.3 35 1.8 97 97 W 6 9 29.59 1002 0.25 0.402335 0 0
10:35 pm 22:35 Mostly Cloudy with Fog 36 2.3 35 1.8 97 97 WSW 3 6 29.59 1002 0.5 0.80467 0 0
10:55 pm 22:55 Clear with Mist and Fog 37 3 37 2.5 97 97 WSW 3 6 29.59 1002 5 8.0467 0 0
11:15 pm 23:15 Clear 37 2.7 36 2.2 97 97 WSW 7 11 29.59 1002 7 11.26538 0 0
11:35 pm 23:35 Clear 38 3.5 37 3 97 97 W 9 15 29.59 1002 10 16.0934 0 0
11:55 pm 23:55 Clear 39 4 38 3.5 97 97 W 10 17 29.59 1002 10 16.0934 0 0

Powered by AerisWeather